カタログに戻る

STARLINK-2743

運用中通信VLEO
NORAD 48682·PAYLOAD·🇺🇸 United States

打ち上げ May 26, 2021 から Cape Canaveral Space Force Station

Loading…

次のパス (今後24時間)

TLE

最新Source: CelesTrak SupGP

元期: Sep 14, 2026, 20:33 UTC

1 48682C 21044AW  26257.85673611  .00043331  00000+0  13939-2 0  2575
2 48682  53.1583 264.6627 0001319  95.0058  87.0954 15.31668232    10

AllMySatでSTARLINK-2743をリアルタイム追跡

Download on the App Store